TimeCDT,TemperatureF,Dew PointF,Humidity,Sea Level PressureIn,VisibilityMPH,Wind Direction,Wind SpeedMPH,Gust SpeedMPH,PrecipitationIn,Events,Conditions,WindDirDegrees,DateUTC
12:54 AM,73.9,71.1,91,30.24,8.0,South,4.6,-,N/A,,Clear,170,2013-07-16 05:54:00
1:54 AM,73.0,71.1,93,30.24,6.0,South,5.8,-,N/A,,Clear,180,2013-07-16 06:54:00
2:54 AM,72.0,71.1,97,30.24,5.0,South,3.5,-,N/A,,Clear,190,2013-07-16 07:54:00
3:54 AM,72.0,70.0,93,30.24,4.0,SSW,3.5,-,N/A,,Clear,200,2013-07-16 08:54:00
4:54 AM,71.1,70.0,96,30.24,3.0,South,4.6,-,N/A,,Clear,190,2013-07-16 09:54:00
5:25 AM,69.8,69.8,100,30.26,1.8,South,4.6,-,N/A,,Partly Cloudy,180,2013-07-16 10:25:00
5:54 AM,71.1,70.0,96,30.24,1.5,South,4.6,-,N/A,,Clear,190,2013-07-16 10:54:00
6:06 AM,71.6,71.6,100,30.26,2.5,SSW,3.5,-,N/A,,Clear,200,2013-07-16 11:06:00
6:31 AM,71.6,71.6,100,30.26,1.8,South,4.6,-,N/A,,Clear,180,2013-07-16 11:31:00
6:39 AM,73.4,71.6,94,30.26,2.5,South,3.5,-,N/A,,Clear,180,2013-07-16 11:39:00
6:49 AM,73.4,71.6,94,30.26,3.0,South,4.6,-,N/A,,Clear,190,2013-07-16 11:49:00
6:54 AM,73.0,72.0,96,30.25,4.0,South,4.6,-,N/A,,Clear,190,2013-07-16 11:54:00
7:54 AM,-9999,-9999,N/A,30.27,-9999.0,North,-9999.0,-,N/A,,Unknown,0,2013-07-16 12:54:00
8:54 AM,81.0,73.0,77,30.26,10.0,North,-9999.0,-,N/A,,Partly Cloudy,0,2013-07-16 13:54:00
9:54 AM,82.9,73.0,72,30.26,10.0,SW,8.1,-,N/A,,Partly Cloudy,230,2013-07-16 14:54:00
10:54 AM,84.0,72.0,67,30.26,10.0,SW,6.9,-,N/A,,Partly Cloudy,230,2013-07-16 15:54:00
11:54 AM,86.0,71.1,61,30.24,10.0,WSW,8.1,-,N/A,,Scattered Clouds,250,2013-07-16 16:54:00
12:54 PM,84.9,71.1,63,30.25,10.0,WSW,6.9,-,N/A,,Mostly Cloudy,240,2013-07-16 17:54:00
1:54 PM,87.1,72.0,61,30.23,10.0,SW,9.2,-,N/A,,Mostly Cloudy,220,2013-07-16 18:54:00
2:54 PM,89.1,70.0,53,30.22,10.0,SW,13.8,18.4,N/A,,Clear,220,2013-07-16 19:54:00
3:54 PM,88.0,71.1,57,30.21,10.0,SW,9.2,-,N/A,,Partly Cloudy,230,2013-07-16 20:54:00
4:54 PM,86.0,69.1,57,30.21,10.0,WSW,8.1,-,N/A,,Mostly Cloudy,250,2013-07-16 21:54:00
5:54 PM,84.0,71.1,65,30.21,10.0,SSW,9.2,-,N/A,,Partly Cloudy,210,2013-07-16 22:54:00
6:54 PM,84.9,72.0,65,30.21,10.0,SW,6.9,-,N/A,,Mostly Cloudy,230,2013-07-16 23:54:00
7:54 PM,82.9,72.0,69,30.23,10.0,SW,6.9,-,N/A,,Clear,230,2013-07-17 00:54:00
8:54 PM,80.1,72.0,76,30.21,10.0,SW,4.6,-,N/A,,Clear,230,2013-07-17 01:54:00
9:54 PM,77.0,72.0,84,30.23,10.0,SW,4.6,-,N/A,,Clear,230,2013-07-17 02:54:00
10:54 PM,75.9,71.1,85,30.24,10.0,Calm,Calm,-,N/A,,Clear,0,2013-07-17 03:54:00
11:54 PM,75.9,70.0,82,30.24,10.0,SW,4.6,-,N/A,,Clear,220,2013-07-17 04:54:00